This demonstration page uses our WeatherBlox Daily Observations layout. Learn more.

Left ArrowRight Arrow

31.31129, -92.44514

Hourly Observations for August 10, 2016

Temp ( °F °C ) Dew Point ( °F °C ) Humidity (%) Winds ( mph kmh ) Pressure ( in mb ) Visibility ( mi km ) Precip ( " mm )
12:53 am 00:53 Clear 80 26.7 78 25.6 94 94 Calm 29.93 1013 8 13 0.00 0.00
1:53 am 01:53 Clear 80 26.7 78 25.6 94 94 Calm 29.93 1014 7 11 0.00 0.00
2:53 am 02:53 Clear with Mist and Fog 79 26.1 78 25.6 97 97 NNE 3 6 29.93 1014 6 10 0.00 0.00
3:53 am 03:53 Clear with Mist and Fog 78 25.6 77 25 97 97 Calm 29.93 1014 4 6 0.00 0.00
4:53 am 04:53 Clear with Mist and Fog 77 25 77 25 100 100 Calm 29.93 1014 4 6 0.00 0.00
5:53 am 05:53 Clear with Mist and Fog 77 25 77 25 100 100 W 5 7 29.94 1014 5 8 0.00 0.00
6:53 am 06:53 Sunny with Mist and Fog 77 25 77 25 100 100 Calm 29.95 1014 4 6 0.00 0.00
7:24 am 07:24 Partly Cloudy with Mist and Fog 78 25.6 78 25.6 100 100 Calm 29.97 1015 4 6 0.00 0.00
7:53 am 07:53 Sunny with Mist and Fog 79 26.1 78 25.6 97 97 WSW 3 6 29.97 1015 5 8 0.00 0.00
8:53 am 08:53 Sunny 85 29.4 78 25.6 80 80 WNW 8 13 29.98 1015 9 14 0.00 0.00
9:53 am 09:53 Sunny 87 30.6 78 25.6 75 75 WNW 9 15 30.00 1016 9 14 0.00 0.00
10:53 am 10:53 Sunny 90 32.2 77 25 66 66 NW 10 17 30.01 1016 10 16 0.00 0.00
11:53 am 11:53 Mostly Sunny 90 32.2 78 25.6 68 68 NNW 7 11 29.99 1016 10 16 0.00 0.00
12:53 pm 12:53 Mostly Sunny 93 33.9 78 25.6 62 62 NW 7 11 29.98 1015 9 14 0.00 0.00
1:53 pm 13:53 Mostly Sunny 94 34.4 77 25 58 58 NNW 7 11 29.95 1014 9 14 0.00 0.00
2:07 pm 14:07 Sunny with Nearby Thunderstorms 94 34.4 77 25 58 58 NNW 8 13 29.94 1014 9 14 0.00 0.00
2:42 pm 14:42 Mostly Cloudy with Thunderstorms 88 31.1 75 23.9 66 66 E 14 22 29.94 1014 9 14 0.00 0.00
2:53 pm 14:53 Cloudy with Thunderstorms 83 28.3 77 25 82 82 E 8 13 29.94 1014 3 4 0.10 2.54
3:01 pm 15:01 Cloudy with Thunderstorms 82 27.8 78 25.6 88 88 SE 12 19 29.94 1014 3 5 0.14 3.56
3:11 pm 15:11 Cloudy with Light Rain 82 27.8 78 25.6 88 88 SE 10 17 29.94 1014 3 5 0.14 3.56
3:23 pm 15:23 Cloudy with Thunderstorms 83 28.3 79 26.1 88 88 W 7 11 29.94 1014 3 5 0.15 3.81
3:53 pm 15:53 Mostly Sunny 81 27.2 77 25 88 88 SW 5 7 29.93 1014 9 14 0.17 4.32
4:53 pm 16:53 Mostly Sunny 82 27.8 78 25.6 88 88 SSW 6 9 29.94 1014 8 13 0.00 0.00
5:53 pm 17:53 Sunny 83 28.3 79 26.1 88 88 SW 5 7 29.94 1014 8 13 0.00 0.00
6:53 pm 18:53 Sunny 84 28.9 79 26.1 85 85 W 3 6 29.93 1014 8 13 0.00 0.00
7:53 pm 19:53 Sunny 81 27.2 78 25.6 91 91 NW 3 6 29.94 1014 9 14 0.00 0.00
8:53 pm 20:53 Clear 81 27.2 77 25 88 88 Calm 29.94 1014 10 16 0.00 0.00
9:53 pm 21:53 Clear with Mist and Fog 79 26.1 79 26.1 100 100 Calm 29.95 1014 5 8 0.00 0.00
10:53 pm 22:53 Clear 78 25.6 77 25 97 97 Calm 29.95 1014 9 14 0.00 0.00
11:53 pm 23:53 Clear 77 25 76 24.4 96 96 Calm 29.94 1014 8 13 0.00 0.00

Powered by AerisWeather